Regional Weather Roundup
Issued by NWS

Home | Current Version | Previous Version | Text Only | Print | Product List | Glossary Off
Versions: 1 2 3 4 5 6 7 8 9 10 11 12 13 14 15 16 17 18 19 20 21 22 23 24 25 26 27 28 29 30 31 32 33 34 35 36 37 38 39 40 41 42 43 44 45 46 47 48 49 50

597
ASUS43 KLSX 250707
RWRMO

WEATHER SUMMARY FOR MISSOURI
NATIONAL WEATHER SERVICE SPRINGFIELD MO
200 AM CDT TUE APR 25 2017

NOTE: "FAIR" INDICATES FEW OR NO CLOUDS BELOW 12,000 FEET WITH NO
       SIGNIFICANT WEATHER AND/OR OBSTRUCTIONS TO VISIBILITY.
       CURRENT SKY AND/OR WEATHER CONDITIONS ARE NOT AVAILABLE FOR
       CHILLICOTHE AND FARMINGTON.

MOZ001>031-035>038-043-044-053-054-250800-
...NORTHERN AND WESTERN MISSOURI...

CITY           SKY/WX    TMP DP  RH WIND       PRES   REMARKS
KANSAS CTY INT CLOUDY    60  45  57 S13       29.57F
KANSAS C DTWN  MOCLDY    64  44  48 S8        29.57F
LEE`S SUMMIT   PTCLDY    61  43  51 S10       29.59S
ST JOSEPH      PTCLDY    61  47  59 S8        29.56S
CHILLICOTHE      N/A     55  40  56 SE3       29.60F
KIRKSVILLE     CLOUDY    50  32  50 SE7       29.62F

$$
MOZ066>068-077>081-088>096-101>105-250800-
...SOUTHWEST MISSOURI...

CITY           SKY/WX    TMP DP  RH WIND       PRES   REMARKS
SPRINGFIELD    CLEAR     59  39  47 S15       29.65F
JOPLIN         PTCLDY    57  44  62 S8        29.63F
BRANSON        CLEAR     54  39  58 SE5       29.69F

$$
MOZ032>034-039>042-045>050-055>058-069>072-250800-
...CENTRAL MISSOURI...

CITY           SKY/WX    TMP DP  RH WIND       PRES   REMARKS
COLUMBIA       CLOUDY    57  38  48 S10       29.66F
JEFFERSON CITY CLOUDY    59  38  45 E3        29.66F
ROLLA          PTCLDY    57  43  59 S12       29.67F
SEDALIA        PTCLDY    56  41  57 S9        29.63F
WHITEMAN AFB   MOCLDY    55  40  58 S6        29.61S
OSAGE BEACH    PTCLDY    58  41  53 S7        29.67F

$$
MOZ051-052-059>065-250800-
...EAST CENTRAL MISSOURI...

CITY           SKY/WX    TMP DP  RH WIND       PRES   REMARKS
ST LOUIS INTL  PTCLDY    62  43  49 S6        29.71F
SPIRIT OF STL  CLEAR     60  47  61 S5        29.70S
ST CHARLES     CLEAR     53  43  68 E3        29.70S

$$
MOZ072>076-082>087-097>100-106>115-250800-
...SOUTH CENTRAL AND SOUTHEAST MISSOURI...

CITY           SKY/WX    TMP DP  RH WIND       PRES   REMARKS
CAPE GIRARDEAU CLEAR     55  49  80 CALM      29.74S
FARMINGTON     CLEAR     55  50  83 CALM      29.72F
POPLAR BLUFF   CLEAR     55  54  96 CALM      29.73F
WEST PLAINS    CLOUDY    57  45  64 S7        29.73F

$$




USA.gov is the U.S. government's official web portal to all federal, state and local government web resources and services.